,,,PA_Meas_PMT16A,,PR_Meas_QMR101_102,,RH_Meas_QMH101,,SR_Meas_QMS101,,TA_Meas_QMH101,,GenWind,,GenWind,
date,time,status,PA,status,PR,status,RH,status,SR,status,TA,status,DirAvg,status,SpdAvg,
2012-04-05, 00:00:04,VALID,1005.76,VALID,0,VALID,85.2222,VALID,0,VALID,25.5123,VALID,299,VALID,0.188672,
2012-04-05, 00:01:04,VALID,1005.76,VALID,0,VALID,85.3443,VALID,0,VALID,25.5123,VALID,299,VALID,0.570703,
2012-04-05, 00:02:04,VALID,1005.71,VALID,0,VALID,85.5426,VALID,0,VALID,25.5123,VALID,280,VALID,0.0449219,
2012-04-05, 00:03:04,VALID,1005.71,VALID,0,VALID,85.3672,VALID,0,VALID,25.5123,VALID,280,VALID,0.407031,
2012-04-05, 00:04:04,VALID,1005.69,VALID,0,VALID,85.1536,VALID,0,VALID,25.5123,VALID,289,VALID,0.578906,
2012-04-05, 00:05:04,VALID,1005.68,VALID,0,VALID,85.6113,VALID,0,VALID,25.5123,VALID,293,VALID,0.221484,
2012-04-05, 00:06:04,VALID,1005.63,VALID,0,VALID,85.2375,VALID,0,VALID,25.4948,VALID,293,VALID,0.0429688,
2012-04-05, 00:07:04,VALID,1005.62,VALID,0,VALID,85.3595,VALID,0,VALID,25.4948,VALID,293,VALID,0.472656,
2012-04-05, 00:08:04,VALID,1005.54,VALID,0,VALID,85.2527,VALID,0,VALID,25.4539,VALID,293,VALID,0,
2012-04-05, 00:09:04,VALID,1005.51,VALID,0,VALID,85.3061,VALID,0,VALID,25.4539,VALID,293,VALID,0.0128906,
2012-04-05, 00:10:04,VALID,1005.47,VALID,0,VALID,85.6037,VALID,0,VALID,25.413,VALID,305,VALID,0.56875,
2012-04-05, 00:11:04,VALID,1005.46,VALID,0,VALID,85.7944,VALID,0,VALID,25.3955,VALID,344,VALID,0.324609,
2012-04-05, 00:12:04,VALID,1005.41,VALID,0,VALID,85.6494,VALID,0,VALID,25.3565,VALID,344,VALID,0.0628906,
2012-04-05, 00:13:04,VALID,1005.38,VALID,0,VALID,85.5655,VALID,0,VALID,25.337,VALID,342,VALID,0.587109,
2012-04-05, 00:14:04,VALID,1005.41,VALID,0,VALID,85.4282,VALID,0,VALID,25.337,VALID,13,VALID,1.16328,
2012-04-05, 00:15:04,VALID,1005.35,VALID,0,VALID,85.2146,VALID,0.0815089,VALID,25.3565,VALID,7,VALID,0.803125,
2012-04-05, 00:16:04,VALID,1005.36,VALID,0,VALID,84.9476,VALID,0,VALID,25.3565,VALID,316,VALID,0.3875,
2012-04-05, 00:17:04,VALID,1005.38,VALID,0,VALID,85.123,VALID,0,VALID,25.376,VALID,347,VALID,0.372266,
2012-04-05, 00:18:04,VALID,1005.4,VALID,0,VALID,85.0773,VALID,0,VALID,25.3779,VALID,270,VALID,0.595703,
2012-04-05, 00:19:04,VALID,1005.44,VALID,0,VALID,84.9781,VALID,0.0815089,VALID,25.3565,VALID,336,VALID,1.12852,
2012-04-05, 00:20:04,VALID,1005.43,VALID,0,VALID,84.6501,VALID,0,VALID,25.3955,VALID,5,VALID,0.773828,
2012-04-05, 00:21:04,VALID,1005.44,VALID,0,VALID,84.6806,VALID,0.0815089,VALID,25.4344,VALID,354,VALID,0.360156,
2012-04-05, 00:22:04,VALID,1005.46,VALID,0,VALID,84.5127,VALID,0,VALID,25.413,VALID,358,VALID,1.02617,
2012-04-05, 00:23:04,VALID,1005.43,VALID,0,VALID,84.528,VALID,0,VALID,25.4558,VALID,41,VALID,0.391797,
2012-04-05, 00:24:04,VALID,1005.45,VALID,0,VALID,84.3449,VALID,0,VALID,25.4344,VALID,33,VALID,0.506641,
2012-04-05, 00:25:04,VALID,1005.43,VALID,0,VALID,84.1084,VALID,0,VALID,25.4753,VALID,12,VALID,0.317578,
2012-04-05, 00:26:04,VALID,1005.38,VALID,0,VALID,84.0703,VALID,0,VALID,25.4753,VALID,12,VALID,0.284375,
2012-04-05, 00:27:04,VALID,1005.35,VALID,0,VALID,84.116,VALID,0,VALID,25.4539,VALID,12,VALID,0.0785156,
2012-04-05, 00:28:04,VALID,1005.33,VALID,0,VALID,83.9177,VALID,0,VALID,25.4948,VALID,331,VALID,0.176563,
2012-04-05, 00:29:04,VALID,1005.31,VALID,0,VALID,83.9482,VALID,0,VALID,25.5337,VALID,359,VALID,0.683203,
2012-04-05, 00:30:04,VALID,1005.24,VALID,0,VALID,83.3684,VALID,0,VALID,25.5707,VALID,3,VALID,1.66016,
2012-04-05, 00:31:04,VALID,1005.22,VALID,0,VALID,83.1548,VALID,0,VALID,25.6486,VALID,351,VALID,0.617578,
2012-04-05, 00:32:04,VALID,1005.21,VALID,0,VALID,83.1014,VALID,0,VALID,25.6876,VALID,341,VALID,0.471094,
2012-04-05, 00:33:04,VALID,1005.22,VALID,0,VALID,82.9259,VALID,0,VALID,25.7265,VALID,351,VALID,0.38125,
2012-04-05, 00:34:04,VALID,1005.19,VALID,0,VALID,82.6131,VALID,0,VALID,25.746,VALID,9,VALID,1.31289,
2012-04-05, 00:35:04,VALID,1005.17,VALID,0,VALID,82.2393,VALID,0,VALID,25.8064,VALID,339,VALID,1.23477,
2012-04-05, 00:36:04,VALID,1005.15,VALID,0,VALID,82.575,VALID,0,VALID,25.8843,VALID,269,VALID,0.398047,
2012-04-05, 00:37:04,VALID,1005.11,VALID,0,VALID,82.0868,VALID,0,VALID,25.9622,VALID,4,VALID,1.09961,
2012-04-05, 00:38:04,VALID,1005.05,VALID,0,VALID,81.4459,VALID,0,VALID,26.0206,VALID,1,VALID,1.17109,
2012-04-05, 00:39:04,VALID,1005.03,VALID,0,VALID,80.8585,VALID,0,VALID,26.0576,VALID,293,VALID,0.857031,
2012-04-05, 00:40:04,VALID,1004.99,VALID,0,VALID,80.8432,VALID,0,VALID,26.118,VALID,318,VALID,0.919922,
2012-04-05, 00:41:04,VALID,1004.95,VALID,0,VALID,80.8509,VALID,0,VALID,26.159,VALID,337,VALID,0.461328,
2012-04-05, 00:42:04,VALID,1004.92,VALID,0,VALID,81.1408,VALID,0,VALID,26.1375,VALID,354,VALID,0.807813,
2012-04-05, 00:43:04,VALID,1004.91,VALID,0,VALID,81.6595,VALID,0,VALID,26.0985,VALID,356,VALID,0.359375,
2012-04-05, 00:44:04,VALID,1004.85,VALID,0,VALID,81.3849,VALID,0,VALID,26.0187,VALID,356,VALID,0.271875,
2012-04-05, 00:45:04,VALID,1004.82,VALID,0,VALID,81.8655,VALID,0,VALID,25.9817,VALID,23,VALID,0.635938,
2012-04-05, 00:46:04,VALID,1004.76,VALID,0,VALID,81.8808,VALID,0,VALID,25.9232,VALID,84,VALID,0.632031,
2012-04-05, 00:47:04,VALID,1004.76,VALID,0,VALID,82.0791,VALID,0,VALID,25.9038,VALID,27,VALID,0.482422,
2012-04-05, 00:48:04,VALID,1004.74,VALID,0,VALID,82.1554,VALID,0,VALID,25.8629,VALID,5,VALID,1.18984,
2012-04-05, 00:49:04,VALID,1004.68,VALID,0,VALID,82.3919,VALID,0,VALID,25.8259,VALID,45,VALID,0.730859,
2012-04-05, 00:50:04,VALID,1004.69,VALID,0,VALID,82.247,VALID,0,VALID,25.8259,VALID,19,VALID,1.49492,
2012-04-05, 00:51:04,VALID,1004.69,VALID,0,VALID,82.6742,VALID,0,VALID,25.785,VALID,39,VALID,0.38125,
2012-04-05, 00:52:04,VALID,1004.71,VALID,0,VALID,82.6818,VALID,0,VALID,25.7674,VALID,358,VALID,1.18984,
2012-04-05, 00:53:04,VALID,1004.73,VALID,0,VALID,82.6284,VALID,0,VALID,25.7265,VALID,11,VALID,1.08164,
2012-04-05, 00:54:04,VALID,1004.76,VALID,0,VALID,82.6971,VALID,0,VALID,25.748,VALID,6,VALID,1.11094,
2012-04-05, 00:55:04,VALID,1004.71,VALID,0,VALID,83.0098,VALID,0,VALID,25.7265,VALID,27,VALID,0.463281,
2012-04-05, 00:56:04,VALID,1004.72,VALID,0,VALID,82.8039,VALID,0,VALID,25.7071,VALID,349,VALID,1.44766,
2012-04-05, 00:57:04,VALID,1004.72,VALID,0,VALID,82.7886,VALID,0,VALID,25.7071,VALID,6,VALID,1.21367,
2012-04-05, 00:58:04,VALID,1004.74,VALID,0,VALID,83.1014,VALID,0,VALID,25.6681,VALID,8,VALID,1.41328,
2012-04-05, 00:59:04,VALID,1004.73,VALID,0,VALID,83.4981,VALID,0,VALID,25.6486,VALID,8,VALID,0.764844,
2012-04-05, 01:00:04,VALID,1004.72,VALID,0,VALID,83.7117,VALID,0.0815089,VALID,25.5883,VALID,356,VALID,0.324219,
2012-04-05, 01:01:04,VALID,1004.69,VALID,0,VALID,83.8719,VALID,0,VALID,25.5902,VALID,356,VALID,0.210938,
2012-04-05, 01:02:04,VALID,1004.69,VALID,0,VALID,83.9558,VALID,0,VALID,25.5493,VALID,356,VALID,0,
2012-04-05, 01:03:04,VALID,1004.66,VALID,0,VALID,84.0931,VALID,0,VALID,25.5318,VALID,356,VALID,0,
2012-04-05, 01:04:04,VALID,1004.65,VALID,0,VALID,84.1466,VALID,0,VALID,25.5318,VALID,356,VALID,0.186719,
2012-04-05, 01:05:04,VALID,1004.6,VALID,0,VALID,84.6501,VALID,0,VALID,25.5123,VALID,356,VALID,0.30625,
2012-04-05, 01:06:04,VALID,1004.55,VALID,0,VALID,84.0703,VALID,0,VALID,25.4928,VALID,356,VALID,0.2875,
2012-04-05, 01:07:04,VALID,1004.52,VALID,0,VALID,84.2457,VALID,0.0815089,VALID,25.5318,VALID,93,VALID,0.688672,
2012-04-05, 01:08:04,VALID,1004.49,VALID,0,VALID,84.4517,VALID,0,VALID,25.5123,VALID,92,VALID,0.379297,
2012-04-05, 01:09:04,VALID,1004.49,VALID,0,VALID,84.5814,VALID,0,VALID,25.4734,VALID,92,VALID,0.389844,
2012-04-05, 01:10:04,VALID,1004.48,VALID,0,VALID,84.8713,VALID,0,VALID,25.4539,VALID,92,VALID,0.375,
2012-04-05, 01:11:04,VALID,1004.47,VALID,0,VALID,85.5579,VALID,0.0815089,VALID,25.4325,VALID,94,VALID,0.559766,
2012-04-05, 01:12:04,VALID,1004.46,VALID,0,VALID,85.2299,VALID,0,VALID,25.4344,VALID,99,VALID,0.708984,
2012-04-05, 01:13:04,VALID,1004.48,VALID,0,VALID,84.9094,VALID,0,VALID,25.4149,VALID,124,VALID,0.670313,
2012-04-05, 01:14:04,VALID,1004.44,VALID,0,VALID,85.123,VALID,0,VALID,25.3955,VALID,185,VALID,0.951563,
2012-04-05, 01:15:04,VALID,1004.41,VALID,0,VALID,85.7334,VALID,0,VALID,25.3741,VALID,186,VALID,0.251563,
2012-04-05, 01:16:04,VALID,1004.42,VALID,0,VALID,85.1765,VALID,0.0815089,VALID,25.3565,VALID,191,VALID,0.107813,
2012-04-05, 01:17:04,VALID,1004.37,VALID,0,VALID,85.2375,VALID,0,VALID,25.3565,VALID,191,VALID,0.377734,
2012-04-05, 01:18:04,VALID,1004.34,VALID,0,VALID,85.9241,VALID,0,VALID,25.3565,VALID,191,VALID,0.50625,
2012-04-05, 01:19:04,VALID,1004.31,VALID,0,VALID,85.6418,VALID,0,VALID,25.3565,VALID,191,VALID,0.973828,
2012-04-05, 01:20:04,VALID,1004.32,VALID,0,VALID,85.7486,VALID,0.0815089,VALID,25.2981,VALID,191,VALID,0.752344,
2012-04-05, 01:21:04,VALID,1004.3,VALID,0,VALID,85.7562,VALID,0,VALID,25.2592,VALID,191,VALID,0.595703,
2012-04-05, 01:22:04,VALID,1004.3,VALID,0,VALID,85.8707,VALID,0,VALID,25.2397,VALID,190,VALID,0.715625,
2012-04-05, 01:23:04,VALID,1004.28,VALID,0,VALID,86.3971,VALID,0,VALID,25.2416,VALID,187,VALID,0.803516,
2012-04-05, 01:24:04,VALID,1004.3,VALID,0,VALID,86.9006,VALID,0,VALID,25.2027,VALID,178,VALID,0.571094,
2012-04-05, 01:25:04,VALID,1004.32,VALID,0,VALID,87.3812,VALID,0,VALID,25.1423,VALID,178,VALID,0.262891,
2012-04-05, 01:26:04,VALID,1004.31,VALID,0,VALID,87.2515,VALID,0,VALID,25.1053,VALID,178,VALID,0.303906,
2012-04-05, 01:27:04,VALID,1004.33,VALID,0,VALID,87.282,VALID,0,VALID,25.0663,VALID,178,VALID,0,
2012-04-05, 01:28:04,VALID,1004.34,VALID,0,VALID,87.3583,VALID,0,VALID,25.0255,VALID,178,VALID,0,
2012-04-05, 01:29:04,VALID,1004.34,VALID,0,VALID,87.5872,VALID,0,VALID,25.0274,VALID,178,VALID,0.473047,
2012-04-05, 01:30:04,VALID,1004.35,VALID,0,VALID,87.6329,VALID,0,VALID,25.0255,VALID,168,VALID,0.370313,
2012-04-05, 01:31:04,VALID,1004.35,VALID,0,VALID,87.6863,VALID,0,VALID,25.006,VALID,168,VALID,0.000390625,
2012-04-05, 01:32:04,VALID,1004.35,VALID,0,VALID,87.549,VALID,0,VALID,24.9866,VALID,146,VALID,0.580078,
2012-04-05, 01:33:04,VALID,1004.3,VALID,0,VALID,87.4956,VALID,0,VALID,25.0255,VALID,146,VALID,0.475391,
2012-04-05, 01:34:04,VALID,1004.27,VALID,0,VALID,87.2896,VALID,0,VALID,25.0469,VALID,146,VALID,1.07617,
2012-04-05, 01:35:04,VALID,1004.27,VALID,0,VALID,87.2896,VALID,0,VALID,25.0663,VALID,154,VALID,1.0125,
2012-04-05, 01:36:04,VALID,1004.21,VALID,0,VALID,87.3965,VALID,0,VALID,25.0858,VALID,160,VALID,0.429688,
2012-04-05, 01:37:04,VALID,1004.21,VALID,0,VALID,87.2668,VALID,0,VALID,25.0663,VALID,135,VALID,0.410547,
2012-04-05, 01:38:04,VALID,1004.19,VALID,0,VALID,87.3965,VALID,0,VALID,25.0663,VALID,40,VALID,0.537109,
2012-04-05, 01:39:04,VALID,1004.13,VALID,0,VALID,87.5185,VALID,0,VALID,25.045,VALID,40,VALID,0.0347656,
2012-04-05, 01:40:04,VALID,1004.12,VALID,0,VALID,87.3965,VALID,0,VALID,25.0255,VALID,40,VALID,0,
2012-04-05, 01:41:04,VALID,1004.08,VALID,0,VALID,87.3659,VALID,0,VALID,25.0079,VALID,40,VALID,0.173438,
2012-04-05, 01:42:04,VALID,1004.03,VALID,0,VALID,87.4727,VALID,0,VALID,25.0079,VALID,40,VALID,0.00195313,
2012-04-05, 01:43:04,VALID,1003.98,VALID,0,VALID,87.9152,VALID,0,VALID,24.9885,VALID,40,VALID,0.015625,
2012-04-05, 01:44:04,VALID,1003.92,VALID,0,VALID,88.2661,VALID,0,VALID,25.0079,VALID,39,VALID,0.648047,
2012-04-05, 01:45:04,VALID,1003.85,VALID,0,VALID,88.0525,VALID,0,VALID,24.9495,VALID,25,VALID,0.637891,
2012-04-05, 01:46:04,VALID,1003.78,VALID,0,VALID,88.1822,VALID,0,VALID,24.9514,VALID,25,VALID,0.313672,
2012-04-05, 01:47:04,VALID,1003.74,VALID,0,VALID,88.2433,VALID,0,VALID,24.8911,VALID,25,VALID,0.404297,
2012-04-05, 01:48:04,VALID,1003.75,VALID,0,VALID,88.5408,VALID,0,VALID,24.8716,VALID,25,VALID,0.419922,
2012-04-05, 01:49:04,VALID,1003.75,VALID,0,VALID,88.7162,VALID,0,VALID,24.7919,VALID,25,VALID,0,
2012-04-05, 01:50:04,VALID,1003.77,VALID,0,VALID,88.8231,VALID,0,VALID,24.7919,VALID,25,VALID,0,
2012-04-05, 01:51:04,VALID,1003.79,VALID,0,VALID,88.9833,VALID,0,VALID,24.7937,VALID,25,VALID,0,
2012-04-05, 01:52:04,VALID,1003.78,VALID,0,VALID,89.0367,VALID,0,VALID,24.7743,VALID,25,VALID,0,
2012-04-05, 01:53:04,VALID,1003.81,VALID,0,VALID,89.2884,VALID,0,VALID,24.7548,VALID,25,VALID,0,
2012-04-05, 01:54:04,VALID,1003.77,VALID,0,VALID,89.7004,VALID,0,VALID,24.7548,VALID,25,VALID,0.0351563,
2012-04-05, 01:55:04,VALID,1003.72,VALID,0,VALID,89.8606,VALID,0,VALID,24.7548,VALID,25,VALID,0,
2012-04-05, 01:56:04,VALID,1003.75,VALID,0,VALID,89.9216,VALID,0,VALID,24.714,VALID,25,VALID,0,
2012-04-05, 01:57:04,VALID,1003.71,VALID,0,VALID,89.8453,VALID,0,VALID,24.6945,VALID,25,VALID,0,
2012-04-05, 01:58:04,VALID,1003.73,VALID,0,VALID,89.6927,VALID,0,VALID,24.7159,VALID,25,VALID,0,
2012-04-05, 01:59:04,VALID,1003.71,VALID,0,VALID,89.7004,VALID,0,VALID,24.6945,VALID,25,VALID,0,
2012-04-05, 02:00:04,VALID,1003.72,VALID,0,VALID,89.7996,VALID,0,VALID,24.714,VALID,25,VALID,0.197266,
2012-04-05, 02:01:04,VALID,1003.7,VALID,0,VALID,89.7233,VALID,0,VALID,24.714,VALID,25,VALID,0.156641,
2012-04-05, 02:02:04,VALID,1003.73,VALID,0,VALID,89.8148,VALID,0,VALID,24.7335,VALID,25,VALID,0,
2012-04-05, 02:03:04,VALID,1003.74,VALID,0,VALID,89.769,VALID,0,VALID,24.7548,VALID,2,VALID,0.0265625,
2012-04-05, 02:04:04,VALID,1003.73,VALID,0,VALID,89.9826,VALID,0,VALID,24.7937,VALID,2,VALID,0,
2012-04-05, 02:05:04,VALID,1003.73,VALID,0,VALID,89.5325,VALID,0,VALID,24.7919,VALID,355,VALID,0.576953,
2012-04-05, 02:06:04,VALID,1003.76,VALID,0,VALID,89.235,VALID,0,VALID,24.8308,VALID,346,VALID,0.637891,
2012-04-05, 02:07:04,VALID,1003.78,VALID,0,VALID,88.9222,VALID,0,VALID,24.8911,VALID,318,VALID,0.590625,
2012-04-05, 02:08:04,VALID,1003.78,VALID,0,VALID,88.2661,VALID,0,VALID,24.93,VALID,303,VALID,0.885547,
2012-04-05, 02:09:04,VALID,1003.79,VALID,0,VALID,88.0449,VALID,0,VALID,24.9866,VALID,301,VALID,0.272266,
2012-04-05, 02:10:04,VALID,1003.74,VALID,0,VALID,87.9915,VALID,0,VALID,25.045,VALID,301,VALID,0.0628906,
2012-04-05, 02:11:04,VALID,1003.72,VALID,0,VALID,87.5185,VALID,0,VALID,25.1034,VALID,339,VALID,0.746094,
2012-04-05, 02:12:04,VALID,1003.69,VALID,0,VALID,87.2515,VALID,0,VALID,25.1229,VALID,338,VALID,0.415625,
2012-04-05, 02:13:04,VALID,1003.64,VALID,0,VALID,86.8701,VALID,0,VALID,25.1618,VALID,350,VALID,0.761328,
2012-04-05, 02:14:04,VALID,1003.6,VALID,0,VALID,87.0379,VALID,0,VALID,25.2027,VALID,19,VALID,0.805469,
2012-04-05, 02:15:04,VALID,1003.55,VALID,0,VALID,87.1752,VALID,0,VALID,25.1618,VALID,348,VALID,0.662109,
2012-04-05, 02:16:04,VALID,1003.49,VALID,0,VALID,87.3125,VALID,0,VALID,25.1442,VALID,357,VALID,0.640234,
2012-04-05, 02:17:04,VALID,1003.47,VALID,0,VALID,87.5185,VALID,0,VALID,25.1248,VALID,356,VALID,0.753906,
2012-04-05, 02:18:04,VALID,1003.44,VALID,0,VALID,87.6711,VALID,0,VALID,25.0644,VALID,355,VALID,0.503906,
2012-04-05, 02:19:04,VALID,1003.45,VALID,0,VALID,87.7779,VALID,0,VALID,25.045,VALID,340,VALID,0.235547,
2012-04-05, 02:20:04,VALID,1003.45,VALID,0,VALID,87.9076,VALID,0,VALID,25.0255,VALID,340,VALID,0.0425781,
2012-04-05, 02:21:04,VALID,1003.53,VALID,0,VALID,88.0068,VALID,0,VALID,25.006,VALID,335,VALID,0.0304688,
2012-04-05, 02:22:04,VALID,1003.59,VALID,0,VALID,87.9534,VALID,0,VALID,25.006,VALID,335,VALID,0.440234,
2012-04-05, 02:23:04,VALID,1003.66,VALID,0,VALID,87.8542,VALID,0.0815089,VALID,25.0255,VALID,285,VALID,0.621094,
2012-04-05, 02:24:04,VALID,1003.73,VALID,0,VALID,87.6863,VALID,0.0815089,VALID,25.045,VALID,217,VALID,0.770312,
2012-04-05, 02:25:04,VALID,1003.78,VALID,0,VALID,87.4804,VALID,0.0815089,VALID,25.0431,VALID,216,VALID,0.885547,
2012-04-05, 02:26:04,VALID,1003.83,VALID,0,VALID,87.3736,VALID,0.0815089,VALID,25.0625,VALID,216,VALID,0.816016,
2012-04-05, 02:27:04,VALID,1003.88,VALID,0,VALID,87.2057,VALID,0.0815089,VALID,25.0625,VALID,216,VALID,0.310937,
2012-04-05, 02:28:04,VALID,1003.9,VALID,0,VALID,87.0913,VALID,0,VALID,25.0839,VALID,216,VALID,0.0941406,
2012-04-05, 02:29:04,VALID,1003.95,VALID,0,VALID,86.954,VALID,0.0815089,VALID,25.082,VALID,216,VALID,0.280078,
2012-04-05, 02:30:04,VALID,1003.97,VALID,0,VALID,86.9845,VALID,0.0815089,VALID,25.1618,VALID,216,VALID,0.234766,
2012-04-05, 02:31:04,VALID,1003.99,VALID,0,VALID,86.9464,VALID,0.0815089,VALID,25.1618,VALID,216,VALID,0.715625,
2012-04-05, 02:32:04,VALID,1003.99,VALID,0,VALID,86.8701,VALID,0.0815089,VALID,25.1599,VALID,201,VALID,0.851172,
2012-04-05, 02:33:04,VALID,1004.01,VALID,0,VALID,87.2591,VALID,0.0815089,VALID,25.1794,VALID,177,VALID,1.14023,
2012-04-05, 02:34:04,VALID,1004.04,VALID,0,VALID,87.1905,VALID,0.0815089,VALID,25.2183,VALID,164,VALID,1.54844,
2012-04-05, 02:35:04,VALID,1004.07,VALID,0,VALID,86.8395,VALID,0.0815089,VALID,25.1988,VALID,150,VALID,1.025,
2012-04-05, 02:36:04,VALID,1004.12,VALID,0,VALID,87.0608,VALID,0.0815089,VALID,25.2202,VALID,147,VALID,0.297266,
2012-04-05, 02:37:04,VALID,1004.09,VALID,0,VALID,87.1752,VALID,0.0815089,VALID,25.1794,VALID,165,VALID,0.472266,
2012-04-05, 02:38:04,VALID,1004.13,VALID,0,VALID,86.9387,VALID,0,VALID,25.1618,VALID,155,VALID,1.13477,
2012-04-05, 02:39:04,VALID,1004.13,VALID,0,VALID,86.954,VALID,0,VALID,25.2007,VALID,143,VALID,1.29844,
2012-04-05, 02:40:04,VALID,1004.16,VALID,0,VALID,87.2286,VALID,0,VALID,25.2416,VALID,120,VALID,0.69375,
2012-04-05, 02:41:04,VALID,1004.14,VALID,0,VALID,86.9311,VALID,0,VALID,25.2397,VALID,127,VALID,0.545703,
2012-04-05, 02:42:04,VALID,1004.12,VALID,0,VALID,86.9235,VALID,0,VALID,25.2611,VALID,129,VALID,0.190625,
2012-04-05, 02:43:04,VALID,1004.15,VALID,0,VALID,86.809,VALID,0,VALID,25.2806,VALID,129,VALID,0.3375,
2012-04-05, 02:44:04,VALID,1004.18,VALID,0,VALID,86.8548,VALID,0,VALID,25.2592,VALID,94,VALID,0.511719,
2012-04-05, 02:45:04,VALID,1004.18,VALID,0,VALID,87.5567,VALID,0,VALID,25.3,VALID,61,VALID,0.371875,
2012-04-05, 02:46:04,VALID,1004.17,VALID,0,VALID,87.5643,VALID,0,VALID,25.2806,VALID,61,VALID,0.536719,
2012-04-05, 02:47:04,VALID,1004.16,VALID,0,VALID,87.5795,VALID,0,VALID,25.2202,VALID,41,VALID,1.03594,
2012-04-05, 02:48:04,VALID,1004.19,VALID,0,VALID,87.1981,VALID,0,VALID,25.2221,VALID,36,VALID,0.84375,
2012-04-05, 02:49:04,VALID,1004.13,VALID,0,VALID,87.3888,VALID,0,VALID,25.2221,VALID,28,VALID,0.801953,
2012-04-05, 02:50:04,VALID,1004.11,VALID,0,VALID,87.2286,VALID,0,VALID,25.2221,VALID,27,VALID,0.439063,
2012-04-05, 02:51:04,VALID,1004.02,VALID,0,VALID,87.1142,VALID,0,VALID,25.2202,VALID,27,VALID,0.625,
2012-04-05, 02:52:04,VALID,1003.98,VALID,0,VALID,87.0989,VALID,0,VALID,25.2183,VALID,27,VALID,0.283203,
2012-04-05, 02:53:04,VALID,1003.9,VALID,0,VALID,86.8853,VALID,0,VALID,25.2806,VALID,34,VALID,0.651563,
2012-04-05, 02:54:04,VALID,1003.86,VALID,0,VALID,87.2057,VALID,0,VALID,25.2806,VALID,54,VALID,0.309766,
2012-04-05, 02:55:04,VALID,1003.78,VALID,0,VALID,85.3977,VALID,0,VALID,25.2592,VALID,54,VALID,0.152734,
2012-04-05, 02:56:04,VALID,1003.78,VALID,0,VALID,85.6952,VALID,0,VALID,25.3195,VALID,54,VALID,0.128516,
2012-04-05, 02:57:04,VALID,1003.72,VALID,0,VALID,85.6418,VALID,0,VALID,25.3779,VALID,54,VALID,0,
2012-04-05, 02:58:04,VALID,1003.71,VALID,0,VALID,86.3894,VALID,0,VALID,25.3974,VALID,54,VALID,0.00429688,
2012-04-05, 02:59:04,VALID,1003.67,VALID,0,VALID,86.3742,VALID,0,VALID,25.4169,VALID,54,VALID,0.0367187,
2012-04-05, 03:00:04,VALID,1003.66,VALID,0,VALID,86.5115,VALID,0,VALID,25.4363,VALID,54,VALID,0,
2012-04-05, 03:01:04,VALID,1003.7,VALID,0,VALID,85.7562,VALID,0,VALID,25.3955,VALID,54,VALID,0.380859,
2012-04-05, 03:02:04,VALID,1003.7,VALID,0,VALID,86.1453,VALID,0,VALID,25.3955,VALID,54,VALID,0,
2012-04-05, 03:03:04,VALID,1003.77,VALID,0,VALID,86.2292,VALID,0,VALID,25.3974,VALID,54,VALID,0,
2012-04-05, 03:04:04,VALID,1003.83,VALID,0,VALID,86.6336,VALID,0,VALID,25.3955,VALID,54,VALID,0,
2012-04-05, 03:05:04,VALID,1003.87,VALID,0,VALID,86.3513,VALID,0,VALID,25.3974,VALID,54,VALID,0.0585938,
2012-04-05, 03:06:04,VALID,1003.94,VALID,0,VALID,86.1453,VALID,0,VALID,25.3565,VALID,315,VALID,0.0109375,
2012-04-05, 03:07:04,VALID,1004.02,VALID,0,VALID,86.4123,VALID,0,VALID,25.4149,VALID,315,VALID,0.00859375,
2012-04-05, 03:08:04,VALID,1004,VALID,0,VALID,83.5439,VALID,0,VALID,25.3955,VALID,316,VALID,0.557422,
2012-04-05, 03:09:04,VALID,1003.99,VALID,0,VALID,83.3989,VALID,0,VALID,25.4539,VALID,297,VALID,1.13281,
2012-04-05, 03:10:04,VALID,1003.95,VALID,0,VALID,81.7892,VALID,0,VALID,25.5727,VALID,290,VALID,1.49766,
2012-04-05, 03:11:04,VALID,1003.94,VALID,0,VALID,82.9793,VALID,0,VALID,25.6486,VALID,299,VALID,0.192188,
2012-04-05, 03:12:04,VALID,1003.93,VALID,0,VALID,83.6278,VALID,0,VALID,25.709,VALID,310,VALID,0.401953,
2012-04-05, 03:13:04,VALID,1003.86,VALID,0,VALID,83.849,VALID,0,VALID,25.67,VALID,263,VALID,0.323438,
2012-04-05, 03:14:04,VALID,1003.84,VALID,0,VALID,83.8795,VALID,0,VALID,25.6116,VALID,281,VALID,0.154297,
2012-04-05, 03:15:04,VALID,1003.83,VALID,0,VALID,83.4981,VALID,0,VALID,25.5513,VALID,302,VALID,0.747266,
2012-04-05, 03:16:04,VALID,1003.83,VALID,0,VALID,83.2006,VALID,0,VALID,25.5337,VALID,290,VALID,0.933594,
2012-04-05, 03:17:04,VALID,1003.9,VALID,0,VALID,84.383,VALID,0,VALID,25.4948,VALID,297,VALID,0.612109,
2012-04-05, 03:18:04,VALID,1003.94,VALID,0,VALID,85.0391,VALID,0,VALID,25.4558,VALID,297,VALID,0.184375,
2012-04-05, 03:19:04,VALID,1003.96,VALID,0,VALID,85.6494,VALID,0,VALID,25.4363,VALID,297,VALID,0.309766,
2012-04-05, 03:20:04,VALID,1003.94,VALID,0,VALID,85.3901,VALID,0,VALID,25.3779,VALID,292,VALID,0.00585938,
2012-04-05, 03:21:04,VALID,1003.93,VALID,0,VALID,85.8325,VALID,0,VALID,25.3195,VALID,292,VALID,0.176563,
2012-04-05, 03:22:04,VALID,1003.88,VALID,0,VALID,85.3901,VALID,0,VALID,25.2825,VALID,292,VALID,0.111719,
2012-04-05, 03:23:04,VALID,1003.89,VALID,0,VALID,86.275,VALID,0,VALID,25.2007,VALID,292,VALID,0,
2012-04-05, 03:24:04,VALID,1003.87,VALID,0,VALID,87.3202,VALID,0,VALID,25.1618,VALID,292,VALID,0.305859,
2012-04-05, 03:25:04,VALID,1003.85,VALID,0,VALID,87.5872,VALID,0,VALID,25.0839,VALID,292,VALID,0.19375,
2012-04-05, 03:26:04,VALID,1003.9,VALID,0,VALID,88.167,VALID,0.0815089,VALID,25.045,VALID,292,VALID,0,
2012-04-05, 03:27:04,VALID,1003.92,VALID,0,VALID,88.4264,VALID,0,VALID,25.0079,VALID,292,VALID,0,
2012-04-05, 03:28:04,VALID,1003.94,VALID,0,VALID,88.5103,VALID,0,VALID,24.9457,VALID,292,VALID,0.264453,
2012-04-05, 03:29:04,VALID,1004,VALID,0,VALID,88.5484,VALID,0.0815089,VALID,24.9087,VALID,292,VALID,0.203125,
2012-04-05, 03:30:04,VALID,1004,VALID,0,VALID,88.5789,VALID,0.0815089,VALID,24.9087,VALID,292,VALID,0.653125,
2012-04-05, 03:31:04,VALID,1003.98,VALID,0,VALID,88.434,VALID,0,VALID,24.8892,VALID,220,VALID,0.272266,
2012-04-05, 03:32:04,VALID,1003.96,VALID,0,VALID,88.4645,VALID,0,VALID,24.8892,VALID,302,VALID,0.579297,
2012-04-05, 03:33:04,VALID,1004.01,VALID,0,VALID,88.2433,VALID,0.0815089,VALID,24.8697,VALID,300,VALID,0.440625,
2012-04-05, 03:34:04,VALID,1004.03,VALID,0,VALID,89.2198,VALID,0.0815089,VALID,24.8892,VALID,341,VALID,0.683203,
2012-04-05, 03:35:04,VALID,1004.09,VALID,0,VALID,89.4639,VALID,0.0815089,VALID,24.8289,VALID,340,VALID,0.436328,
2012-04-05, 03:36:04,VALID,1004.1,VALID,0,VALID,89.9216,VALID,0,VALID,24.7919,VALID,349,VALID,0.860156,
2012-04-05, 03:37:04,VALID,1004.1,VALID,0,VALID,90.0894,VALID,0.0815089,VALID,24.7743,VALID,350,VALID,0.669922,
2012-04-05, 03:38:04,VALID,1004.1,VALID,0,VALID,90.2115,VALID,0.0815089,VALID,24.6945,VALID,346,VALID,0.569531,
2012-04-05, 03:39:04,VALID,1004.08,VALID,0,VALID,90.5319,VALID,0,VALID,24.6556,VALID,346,VALID,0.700781,
2012-04-05, 03:40:04,VALID,1004.03,VALID,0,VALID,90.6998,VALID,0.0815089,VALID,24.6361,VALID,3,VALID,0.771484,
2012-04-05, 03:41:04,VALID,1004.02,VALID,0,VALID,90.86,VALID,0,VALID,24.599,VALID,3,VALID,0.323438,
2012-04-05, 03:42:04,VALID,1004,VALID,0,VALID,90.8981,VALID,0,VALID,24.5582,VALID,1,VALID,0.411328,
2012-04-05, 03:43:04,VALID,1003.99,VALID,0,VALID,91.0888,VALID,0,VALID,24.5388,VALID,288,VALID,0.130859,
2012-04-05, 03:44:04,VALID,1004,VALID,0,VALID,91.2719,VALID,0.0815089,VALID,24.5174,VALID,289,VALID,0.270312,